星链-5951 (STARLINK-5951 )

导读 | 豆包AI

STARLINK-5951是美国太空探索技术公司(SpaceX)星链(Starlink)卫星互联网项目中的一颗卫星,于2023年6月12日在美国发射升空,归属星链卫星星座组网,旨在为全球范围内用户提供低延迟、宽带网络覆盖服务,属于星链批量部署的第二代低轨通信卫星。

Basic Information
目录编号:
56918
目录名称:
STARLINK-5951
国际标识:
2023-083AU
轨道中心:
EARTH
卫星名称:
星链-5951
卫星全名:
星链-5951 (STARLINK-5951 )
卫星状态:
在轨 (已飞行1053 天)
发射日期:
2023-06-12 UTC
国别 :
美国 (US)
星等 :
--
Orbit Information
数据来源 国际轨道数据 AOE轨道数据
星历时间 2026-04-30T10:26:48+0800
7小时前
查看轨道信息
2026-04-25T08:00:00+0800
5天前
查看轨道信息
半长轴 6863.701km 6863.664km
偏心率 0.0001605 0.0002123
轨道倾角 43.004° 43.005°
近地点辐角 286.358° 270.642°
升交点赤经 140.098° 168.867°
平近点角 73.710° 94.914°
近地点 484.462km 484.069km
远地点 486.666km 486.985km
周期 94.319分钟 94.318分钟
每日圈数 15.267407 15.267531
Detailed Information
固有亮度:
5
最大亮度:
2.4
卫星平台:
Starlink v1.5
覆盖范围:
全球
运营商:
太空探索技术公司
运营商所在国:
美国
制造商(研发单位):
太空探索技术公司
制造商所在国:
美国
使用方式:
暂无
Satellite Introduction
星链(Starlink)计划是由太空探索技术公司(SpaceX)提出的一个巨型低轨卫星互联网星座项目,计划在2019年至2024年间在太空搭建由约1.2万颗卫星组成的“星链”网络,其中1584颗将部署在地球上空550千米处的近地轨道,并从2020年开始工作。该卫星仍在工作。
2D Orbit Map
3D Orbit Map
Orbit Altitude Analysis Chart
Orbit Inclination Analysis Chart
Orbit Comprehensive Analysis Chart
View Comprehensive Chart